{"data":{"norad_id":41917,"epoch":"2026-05-25T03:23:58.221312Z","epoch_age_seconds":65995,"freshness":"FRESH","line1":"1 41917U 17003A   26145.14164608  .00000072  00000+0  18572-4 0  9996","line2":"2 41917  86.3950  98.1900 0002129  76.5777 283.5656 14.34218026489901","mean_motion":14.34218026,"eccentricity":0.0002129,"inclination_deg":86.395,"raan_deg":98.19,"arg_perigee_deg":76.5777,"mean_anomaly_deg":283.5656,"bstar":1.8572e-5,"rev_number":48990,"period_min":100.40314470291,"perigee_km":776.14276580553,"apogee_km":779.18970682355,"semimajor_km":7155.8032363145,"source":"CELESTRAK","updated_at":"2026-05-25T13:38:14.762058Z"}}